x

Gulf Of Maine - 78 Nm East Of Portsmouth, Nh (44005) Wave Buoy

11:50 - Sun 20th Apr 2014 All times are EDT. -4 hours from GMT.

  • Sig Wave height 2.3ft
  • Peak Period 9s
  • Average Period 4s
  • Wind
    16mph, 20mph gusts
  • Sea Temp 41°f
  • Sea Pressure 1027.6mb
  • Gulf Of Maine - 78 Nm East Of Portsmouth, Nh
  • Gulf Of Maine - 78 Nm East Of Portsmouth, Nh

More Historic Weather Station data

Upgrade to MSW Pro to gain access to the past 30 days of data for over 8000 Wavebouys and Weather Stations around the globe.

Join Pro

Comparision Forecast

View Surf forecast
   
Dom 04/20 11:50 2.5ft 9s 4s 16 20 mph 1027.6mb 41f -
10:50 2ft 8s 4s 16 18 mph 1028.3mb 41f -
9:50 2ft 8s 4s 13 16 mph 1029.4mb 41f -
8:50 1.6ft 8s 5s 13 16 mph 1030mb 42f -
7:50 1.6ft 8s 5s 11 13 mph 1030.1mb 42f -
6:50 2ft 8s 5s 11
mph
1030.2mb 42f 41f
5:50 2ft 8s 5s 9
mph
1030.9mb 42f 42f
4:50 2ft 5s 5s 7 9 mph 1031.4mb 42f 42f
3:50 2.5ft 5s 4s 7 9 mph 1031.7mb 42f 41f
2:50 2.5ft 4s 4s 4 7 mph 1032.1mb 42f 41f
1:50 2.5ft 4s 4s 4 7 mph 1032.6mb 41f 41f
12:50 2.5ft 5s 4s 9 11 mph 1032.3mb 41f 41f
11:50 3ft 4s 4s 13
mph
1032.4mb 41f 40f
10:50 3.5ft 4s 4s 13 16 mph 1032.9mb 41f 40f
9:50 3.5ft 8s 4s 16 18 mph 1033.1mb 41f 41f
8:50 3.5ft 4s 4s 18 22 mph 1032.6mb 41f 41f
7:50 4ft 9s 4s 18 22 mph 1032.2mb 41f 41f
6:50 4ft 8s 5s 18 22 mph 1031.9mb 41f 41f
5:50 3ft 4s 4s 18 20 mph - 41f 41f
4:50 3ft 9s 4s 18 20 mph 1030.5mb 41f 42f
3:50 3ft 9s 5s 13 18 mph 1029.9mb 41f 42f
2:50 3ft 10s 5s 16 20 mph 1028.9mb 41f 42f
1:50 3.5ft 10s 5s 13 16 mph 1029.1mb 41f 43f
12:50 3.5ft 10s 5s 16 20 mph 1028.6mb 41f 43f
Sáb 04/19 11:50 4.5ft 9s 5s 13 18 mph 1028.4mb 41f 43f
10:50 4ft 10s 5s 13 18 mph 1028.4mb 41f 43f
9:50 4.5ft 10s 5s 18 22 mph 1027.5mb 41f 45f
8:50 5ft 9s 6s 11 13 mph 1026.8mb 41f 44f
7:50  -   -   -  13 16 mph 1025.4mb 41f 45f
6:50 5ft 9s 5s 18 20 mph 1024.1mb 41f 45f
5:50 4ft 9s 5s 18 22 mph 1023.1mb 41f 46f
4:50 4.5ft 9s 6s 18 22 mph 1022.2mb 41f 46f
3:50 4ft 9s 6s 18 22 mph 1021mb 41f 47f
2:50 4ft 9s 6s 11 13 mph 1020.9mb 42f 45f
1:50 3.5ft 9s 6s 9 11 mph 1021.1mb 42f 43f
12:50 4ft 10s 6s 11 13 mph 1021.2mb 42f 41f
11:50 4.5ft 10s 6s 13 16 mph 1021mb 41f 41f
10:50 5ft 9s 6s 11 13 mph 1020.8mb 41f 41f
9:50 4.5ft 10s 6s 11 13 mph 1021mb 41f 41f
8:50 5ft 8s 7s 11 13 mph 1021mb 41f 41f
7:50 5ft 8s 7s 11 13 mph 1021.2mb 41f 40f
6:50 5.5ft 9s 7s 13 16 mph 1021.4mb 41f 40f
5:50 5ft 8s 7s 13 16 mph 1021.3mb 41f 40f
4:50 5ft 9s 7s 11
mph
1021mb 41f 40f
3:50 6ft 9s 8s 11 13 mph 1021.5mb 41f 40f
2:50 5.5ft 10s 7s 9 11 mph 1021.8mb 41f 39f
1:50 5ft 9s 7s 9 11 mph 1022.6mb 41f 39f
12:50 6ft 10s 7s 11 13 mph 1023.9mb 41f 39f
Sex 04/18 11:50 6ft 10s 7s 7 9 mph 1024.6mb 41f 39f
10:50 6ft 10s 7s 7
mph
1025.3mb 41f 39f
9:50 6.5ft 9s 7s 7 9 mph 1025.8mb 41f 39f
8:50 7ft 8s 7s 9
mph
1026.1mb 41f 38f
7:50 7ft 8s 7s 4 7 mph 1027.2mb 41f 38f
6:50 8ft 9s 7s 7 9 mph 1027.4mb 41f 38f
5:50 7ft 10s 7s 4 7 mph 1028.4mb 41f 38f
4:50 7ft 9s 7s 7 9 mph 1029.5mb 41f 38f
3:50 6ft 9s 7s 9 11 mph 1030.3mb 41f 38f
2:50 5.5ft 9s 6s 9 13 mph 1030.8mb 41f 37f
1:50 5.5ft 7s 6s 13 16 mph 1031.4mb 41f 37f
12:50 5.5ft 9s 6s 11 13 mph 1032.3mb 41f 37f
11:50 5.5ft 9s 6s 9 13 mph 1034.6mb 41f 37f
10:50 5.5ft 9s 5s 13 18 mph 1034.6mb 41f 37f
9:50 6ft 8s 6s 16 20 mph 1034.6mb 41f 37f
8:50 6ft 9s 6s 18 20 mph 1034.6mb 40f 37f
7:50 5.5ft 8s 6s 20 22 mph 1034.5mb 40f 38f
6:50 6ft 8s 7s 13 18 mph 1036.5mb 40f 38f
5:50 5ft 8s 6s 11 16 mph 1037.1mb 40f 38f
4:50 4.5ft 8s 6s 13 16 mph 1036.9mb 40f 38f
3:50 4ft 8s 5s 13 16 mph 1036.6mb 40f 38f
2:50 3.5ft 9s 5s 13 16 mph 1036.7mb 40f 38f
1:50 4ft 7s 5s 13 16 mph 1037mb 40f 38f
12:50 4.5ft 6s 5s 11 13 mph 1038.1mb 40f 38f
Qui 04/17 11:50 4.5ft 7s 5s 11
mph
1039.1mb 41f 37f
10:50 4.5ft 7s 5s 13 16 mph 1040mb 40f 38f
9:50  -   -   -  11 13 mph 1040.6mb 40f 37f
8:50 5ft 7s 5s 11 13 mph 1041.1mb 40f 37f
7:50 4.5ft 6s 5s 11 16 mph 1041.1mb 41f 37f
6:50 5ft 7s 6s 13 16 mph 1041.3mb 41f 36f
5:50 5ft 7s 5s 13 16 mph - 41f 36f
4:50 5.5ft 7s 5s 16 18 mph - 41f 36f
3:50 5ft 6s 5s 18 20 mph 1041.9mb 41f 35f
2:50 5.5ft 6s 5s 20 25 mph 1041.8mb 41f 35f
1:50 5.5ft 7s 5s 20 27 mph 1042.2mb 41f 35f
12:50 5.5ft 6s 5s 20 25 mph 1042.5mb 41f 35f
11:50 5ft 6s 5s 20 25 mph 1042.9mb 40f 35f
10:50 5.5ft 6s 5s 20 25 mph 1042.9mb 40f 35f
9:50 5.5ft 6s 5s 20 27 mph 1043mb 40f 34f
8:50 5ft 5s 5s 22 27 mph 1042.5mb 40f 34f
7:50 6.5ft 6s 5s 25 27 mph 1041.8mb 40f 33f
6:50 6ft 5s 5s 25 29 mph 1041.4mb 40f 33f
5:50 6ft 6s 5s 22 29 mph 1040.5mb 40f 32f